GSAT-10 (GAGAN/PRN 128)

Last updated on Sun Jun 21 2026 00:03:34 GMT+0000 (Coordinated Universal Time)

1 38779U 12051B 26171.40849205 -.00000169 00000+0 00000+0 0 9997 2 38779 0.0717 261.2491 0007842 187.3061 50.1329 1.00272193 50137
UTC large
Height (km)
Speed (km/s)
/
Latitude / Longitude
Inclination (degrees)
Orbital Period (minutes)
Azimuth
Elevation
Range (km)
Doppler Factor

Next 0 passes for location: London (51.5072 / 0.1276)

No passes found over London.
GSAT-10 (GAGAN/PRN 128)